Flag for US Virgin Islands Weather past 2 weeks in Christiansted, US Virgin Islands

Now
75 °F

Clear.


Feels Like: 73 °F
Forecast: 74 / 84 °F
Wind: 3 mph from North

Location: Christiansted / Henry E. Rohlsen Airport - Saint Croix

Current Time: Oct 20, 2014 at 5:47:03 AM

Latest Report: Oct 20, 2014 at 4:53 AM


Visibility: 10 mi

Pressure: 29.92 "Hg

Humidity: 94%

Dew point: 73 °F

Location of ChristianstedLocation

Historic Weather in Christiansted — Graph

°F

Christiansted temperature yesterday

Maximum temperature yesterday: 87 °F (at 10:53 AM)
Minimum temperature yesterday: 75 °F (at 1:53 AM)
Average temperature yesterday: 81 °F

Past Weeks' High & Low Weather Summary

 TemperatureHumidityPressure
High91 °F (Oct 12, 11:53 AM)97% (Oct 9, 5:53 AM)30.02 "Hg (Oct 9, 5:53 AM)
Low73 °F (Oct 8, 5:53 AM)53% (Oct 8, 9:53 AM)29.79 "Hg (Oct 10, 3:53 AM)
Average81 °F78%29.93 "Hg
* Reported Oct 5 4:53 AM — Oct 20 4:53 AM, Christiansted, Weather by CustomWeather, © 2014

Note: Actual official high and low records may vary slightly from our data, if they occured in-between our weather recording intervals... More about our weather records

Advertising

Christiansted weather history for previous 24 hours

 ConditionsComfort  
Time TempWeatherWind HumidityBarometerVisibility
4:53 AM
Oct 20
75 °FClear.3 mph94%29.92 "Hg10 mi
3:53 AM75 °FClear.5 mph94%29.92 "Hg10 mi
2:53 AM76 °FClear.3 mph91%29.92 "Hg10 mi
1:53 AM76 °FPassing clouds.5 mph91%29.93 "Hg10 mi
12:53 AM76 °FClear.3 mph91%29.95 "Hg10 mi
10:53 PM
Oct 19
77 °FClear.5 mph88%29.96 "Hg10 mi
9:53 PM77 °FClear.6 mph88%29.96 "Hg10 mi
8:53 PM77 °FClear.5 mph88%29.95 "Hg10 mi
7:53 PM79 °FClear.3 mph84%29.95 "Hg10 mi
6:53 PM80 °FClear.3 mph81%29.93 "Hg10 mi
5:53 PM82 °FSunny.3 mph77%29.93 "Hg10 mi
5:38 PM83 °FScattered clouds.6 mph74%29.93 "Hg10 mi
5:16 PM84 °FPartly sunny.6 mph72%29.92 "Hg10 mi
4:53 PM84 °FScattered clouds.6 mph70%29.91 "Hg10 mi
3:53 PM84 °FScattered clouds.8 mph72%29.90 "Hg10 mi
2:53 PM86 °FScattered clouds.8 mph70%29.90 "Hg10 mi
1:53 PM85 °FScattered clouds.9 mph77%29.91 "Hg10 mi
12:53 PM87 °FScattered clouds.10 mph61%29.93 "Hg10 mi
11:53 AM87 °FScattered clouds.12 mph65%29.96 "Hg10 mi
10:53 AM87 °FScattered clouds.12 mph67%29.98 "Hg10 mi
9:53 AM85 °FScattered clouds.7 mph70%29.98 "Hg10 mi
8:53 AM86 °FPassing clouds.7 mph65%29.97 "Hg10 mi
7:53 AM83 °FPassing clouds.6 mph74%29.96 "Hg10 mi
6:53 AM78 °FPassing clouds.3 mph82%29.95 "Hg10 mi
5:53 AM76 °FOvercast.5 mph91%29.93 "Hg10 mi
Weather by CustomWeather, © 2014

See weather overviewHow to use our weather pages